STARLINK-1504, 45746

Orbit data source: Space-Track

STARLINK-1504, 45746 is a payload satellite owned by SpaceX/Seattle (US) in LEO that was launched on Sat, 13 Jun 2020 UTC via an FALCON 9 launch vehicle from the Air Force Eastern Test Range (AFETR). Payload-class satellites include a variety of spacecraft equipped with specific instruments for various scientific and technological missions. These include communications satellites like Starlink; space stations such as the ISS; scientific satellites like the Hubble; Earth observation satellites from companies like Planet Labs, Umbra, and HawkEye 360; GPS; miniature CubeSats for education and research; and military/defense satellites.

Loading next visibility...
Identifier
45746, 2020-038S
Orbit
LEO
Country
Flag of USUS
Related business
Manufacturer
SpaceX/Seattle
Mission
Partially operational Commercial Communications
Bus & Motor
STARLINK, Unknown motor
Mass
260 kg wet, ~248 kg dry
Launch date (UTC)
2020-06-13 (6 years ago)
Launch vehicle
FALCON 9
Launch site
Air Force Eastern Test Range (AFETR)
Object type
Payload
Rocket body
Debris
Shape & HBR
Box + 1 Pan, 10.1 m
Radar Cross Section
13.562 m², Large (>1 m²)

Expand to show TLE details & history
Last TLE update: 1 day ago

TLE from 1 day ago
0 STARLINK-1504
1 45746U 20038S   26235.77760120  .00045771  00000-0  47072-3 0  9994
2 45746  53.0177  49.2832 0001642  70.5140 289.6051 15.64439580343577
Epoch: 2026-08-23T18:39Z
TLE epoch observation values (Epoch: 2026-08-23T18:39:44.743Z)
Latitude
-0.00003°
Longitude
157.27796°
Altitude
375.377 km
Speed
7.686 km/s
True Right ascension
03h 17m 07s
True Declination
0° 00' 00"
Sunlit
Object was in daylight at epoch
Visualization orbit readout
Latitude
Unknown
Longitude
Unknown
Altitude
Unknown
Speed
Unknown
Apparent Right ascension
Unknown
Apparent Declination
Unknown
Sunlit
N/A
Visualization observer readout
Local Sidereal Time
15:23:35
Azimuth
Unknown
Elevation
Unknown
Doppler factor
Unknown
Orbital elements
Apogee altitude
376.243 km
Perigee altitude
374.026 km
Semi-major axis
6,753.271 km
Eccentricity
0.00016
Inclination
53.0177°
RAAN
49.2832°
Arg. of periapsis
70.514°
True anomaly
289.58737°
Mean anomaly
289.6051°
Eccentric anomaly
289.59624°
Mean motion
3.91086 °/min
Orbital period
92.05 mins
BSTAR
0.00047072
Loading maneuver chart data...
Computing Atmospheric mass density...

Documentation

Showing up to 5 results
|